Location: Großmugl Leeberg
(48.4883°N, 16.2231°E)
Time: 10:57:29
(UTC+02:00)

ISS - Visible Passes

Search period start: 12 April 2026 00:00
Search period end: 22 April 2026 00:00
Orbit: 416 x 424 km, 51.6° (Epoch: 11 April)

Date Brightness Start Highest point End Pass type
(mag) Time Alt. Az. Time Alt. Az. Time Alt. Az.
18 Apr -1.5 05:26:33 10° S 05:29:03 19° SE 05:31:33 10° E visible
19 Apr -1.1 04:40:15 10° SSE 04:41:51 13° SE 04:43:27 10° ESE visible
21 Apr -2.3 04:41:04 14° SSW 04:43:26 29° SE 04:46:25 10° E visible
